• In Netherlands
  • List of Countries
  • For 7 days
  • Water Temperature
  • Satellite Maps
  • Weather Map
  • Weather Widgets
  • user-avatar
    Login

    Hourly Weather Barra

    Today, 25 January, Wednesday

    Time Temperature Precipitation Wind Pressure Humidity
    00:00 +26°C° 0.5 mm 2 mps 748 mmHg 94%
    01:00 +26°C° 0.5 mm 2 mps 748 mmHg 93%
    02:00 +26°C° 0.1 mm 2 mps 748 mmHg 94%
    03:00 +26°C° 0.1 mm 2 mps 747 mmHg 94%
    04:00 +26°C° 0 mm 2 mps 747 mmHg 95%
    05:00 +26°C° 0.1 mm 2 mps 748 mmHg 93%
    06:00 +26°C° 0.1 mm 2 mps 748 mmHg 92%
    07:00 +27°C° 0.1 mm 3 mps 748 mmHg 90%
    08:00 +28°C° 0.4 mm 3 mps 748 mmHg 82%
    09:00 +30°C° 0.4 mm 3 mps 747 mmHg 73%
    10:00 +33°C° 0.4 mm 4 mps 747 mmHg 65%
    11:00 +33°C° 0.2 mm 4 mps 747 mmHg 63%
    12:00 +34°C° 0.2 mm 4 mps 747 mmHg 60%
    13:00 +35°C° 0.2 mm 4 mps 746 mmHg 58%
    14:00 +34°C° 0.1 mm 4 mps 746 mmHg 59%
    15:00 +34°C° 0.1 mm 4 mps 746 mmHg 60%
    16:00 +34°C° 0.1 mm 5 mps 745 mmHg 62%
    17:00 +32°C° 0.3 mm 4 mps 745 mmHg 69%
    18:00 +30°C° 0.3 mm 4 mps 746 mmHg 76%
    19:00 +28°C° 0.3 mm 3 mps 746 mmHg 83%
    20:00 +27°C° 0.7 mm 3 mps 746 mmHg 87%
    21:00 +26°C° 0.7 mm 3 mps 747 mmHg 91%
    22:00 +25°C° 0.7 mm 3 mps 747 mmHg 95%
    23:00 +25°C° 0.8 mm 2 mps 747 mmHg 95%

    Tomorrow, 26 January, Thursday

    Time Temperature Precipitation Wind Pressure Humidity
    00:00 +25°C° 0.8 mm 2 mps 747 mmHg 95%
    01:00 +25°C° 0.8 mm 2 mps 746 mmHg 95%
    02:00 +25°C° 0.4 mm 2 mps 746 mmHg 95%
    03:00 +25°C° 0.4 mm 2 mps 746 mmHg 96%
    04:00 +25°C° 0.4 mm 2 mps 746 mmHg 96%
    05:00 +25°C° 0.3 mm 2 mps 746 mmHg 94%
    06:00 +26°C° 0.3 mm 2 mps 747 mmHg 92%
    07:00 +27°C° 0.3 mm 2 mps 747 mmHg 90%
    08:00 +28°C° 0.3 mm 3 mps 747 mmHg 81%
    09:00 +30°C° 0.3 mm 3 mps 747 mmHg 73%
    10:00 +31°C° 0.3 mm 3 mps 747 mmHg 65%
    11:00 +33°C° 0.1 mm 4 mps 747 mmHg 63%
    12:00 +34°C° 0.1 mm 4 mps 746 mmHg 60%
    13:00 +34°C° 0.1 mm 4 mps 746 mmHg 57%
    14:00 +34°C° 0.1 mm 4 mps 745 mmHg 58%
    15:00 +34°C° 0.1 mm 4 mps 745 mmHg 59%
    16:00 +33°C° 0.1 mm 4 mps 744 mmHg 60%
    17:00 +32°C° 0 mm 4 mps 745 mmHg 68%
    18:00 +29°C° 0 mm 3 mps 745 mmHg 75%
    19:00 +27°C° 0 mm 3 mps 746 mmHg 82%
    20:00 +26°C° 0 mm 3 mps 746 mmHg 86%
    21:00 +25°C° 0 mm 3 mps 747 mmHg 91%
    22:00 +24°C° 0 mm 2 mps 747 mmHg 95%
    23:00 +24°C° 0 mm 2 mps 747 mmHg 96%

    Day after tomorrow, 27 January, Friday

    Time Temperature Precipitation Wind Pressure Humidity
    00:00 +24°C° 0 mm 2 mps 747 mmHg 96%
    01:00 +24°C° 0 mm 2 mps 746 mmHg 96%
    02:00 +24°C° 0 mm 2 mps 746 mmHg 96%
    03:00 +24°C° 0 mm 2 mps 746 mmHg 96%
    04:00 +24°C° 0 mm 2 mps 746 mmHg 95%
    05:00 +25°C° 0 mm 2 mps 746 mmHg 93%
    06:00 +25°C° 0 mm 2 mps 746 mmHg 91%
    07:00 +26°C° 0 mm 2 mps 747 mmHg 88%
    08:00 +28°C° 0 mm 3 mps 747 mmHg 78%
    09:00 +30°C° 0 mm 3 mps 747 mmHg 67%
    10:00 +33°C° 0 mm 3 mps 747 mmHg 56%
    11:00 +34°C° 0 mm 3 mps 747 mmHg 53%
    12:00 +34°C° 0 mm 4 mps 746 mmHg 50%
    13:00 +35°C° 0 mm 4 mps 746 mmHg 47%
    14:00 +35°C° 0 mm 4 mps 745 mmHg 50%
    15:00 +34°C° 0 mm 4 mps 745 mmHg 53%
    16:00 +34°C° 0 mm 4 mps 745 mmHg 56%
    17:00 +32°C° 0 mm 4 mps 745 mmHg 64%
    18:00 +29°C° 0 mm 4 mps 746 mmHg 72%
    19:00 +28°C° 0 mm 3 mps 746 mmHg 80%
    20:00 +27°C° 0 mm 3 mps 747 mmHg 83%
    21:00 +26°C° 0 mm 3 mps 747 mmHg 87%
    22:00 +26°C° 0 mm 3 mps 748 mmHg 90%
    23:00 +26°C° 0 mm 3 mps 747 mmHg 92%

    28 January, Saturday

    Time Temperature Precipitation Wind Pressure Humidity
    00:00 +25°C° 0 mm 2 mps 747 mmHg 93%
    01:00 +25°C° 0 mm 2 mps 747 mmHg 95%
    02:00 +25°C° 0 mm 2 mps 746 mmHg 95%
    03:00 +25°C° 0 mm 2 mps 746 mmHg 95%
    04:00 +25°C° 0 mm 2 mps 746 mmHg 95%
    05:00 +25°C° 0 mm 2 mps 747 mmHg 93%
    06:00 +26°C° 0 mm 2 mps 747 mmHg 91%
    07:00 +27°C° 0 mm 2 mps 748 mmHg 89%
    08:00 +28°C° 0 mm 2 mps 748 mmHg 80%
    09:00 +30°C° 0 mm 3 mps 748 mmHg 71%
    10:00 +33°C° 0 mm 3 mps 748 mmHg 63%
    11:00 +34°C° 0 mm 3 mps 748 mmHg 57%
    12:00 +35°C° 0 mm 3 mps 747 mmHg 52%
    13:00 +36°C° 0 mm 3 mps 746 mmHg 46%
    14:00 +36°C° 0 mm 3 mps 746 mmHg 47%
    15:00 +35°C° 0 mm 3 mps 746 mmHg 49%
    16:00 +35°C° 0 mm 4 mps 745 mmHg 50%
    17:00 +33°C° 0 mm 3 mps 746 mmHg 61%
    18:00 +30°C° 0 mm 3 mps 746 mmHg 71%
    19:00 +28°C° 0 mm 3 mps 746 mmHg 82%
    20:00 +27°C° 0 mm 3 mps 747 mmHg 86%
    21:00 +26°C° 0 mm 3 mps 747 mmHg 90%
    22:00 +26°C° 0 mm 3 mps 748 mmHg 94%
    23:00 +26°C° 0 mm 3 mps 748 mmHg 93%

    29 January, Sunday

    Time Temperature Precipitation Wind Pressure Humidity
    00:00 +27°C° 0 mm 3 mps 747 mmHg 93%
    01:00 +27°C° 0 mm 3 mps 747 mmHg 92%
    02:00 +27°C° 0 mm 3 mps 747 mmHg 92%
    03:00 +27°C° 0 mm 3 mps 746 mmHg 92%
    04:00 +27°C° 0 mm 3 mps 746 mmHg 92%
    05:00 +27°C° 0.1 mm 3 mps 747 mmHg 91%
    06:00 +27°C° 0.1 mm 3 mps 747 mmHg 90%
    07:00 +28°C° 0.1 mm 3 mps 748 mmHg 89%
    08:00 +29°C° 0.2 mm 3 mps 748 mmHg 82%
    09:00 +30°C° 0.2 mm 3 mps 748 mmHg 75%
    10:00 +33°C° 0.2 mm 3 mps 748 mmHg 67%
    11:00 +34°C° 0.2 mm 4 mps 747 mmHg 63%
    12:00 +35°C° 0.2 mm 4 mps 747 mmHg 59%
    13:00 +35°C° 0.2 mm 4 mps 746 mmHg 55%
    14:00 +35°C° 0 mm 4 mps 746 mmHg 56%
    15:00 +35°C° 0 mm 4 mps 745 mmHg 57%
    16:00 +35°C° 0 mm 4 mps 745 mmHg 58%
    17:00 +33°C° 0 mm 4 mps 745 mmHg 66%
    18:00 +30°C° 0 mm 3 mps 746 mmHg 74%
    19:00 +28°C° 0 mm 3 mps 746 mmHg 82%
    20:00 +28°C° 0.2 mm 3 mps 747 mmHg 85%
    21:00 +27°C° 0.2 mm 3 mps 747 mmHg 89%
    22:00 +26°C° 0.2 mm 3 mps 747 mmHg 93%
    23:00 +26°C° 0.5 mm 3 mps 747 mmHg 92%

    30 January, Monday

    Time Temperature Precipitation Wind Pressure Humidity
    00:00 +26°C° 0.5 mm 3 mps 746 mmHg 92%
    01:00 +27°C° 0.5 mm 3 mps 746 mmHg 91%
    02:00 +27°C° 0.7 mm 3 mps 746 mmHg 90%
    03:00 +27°C° 0.7 mm 3 mps 746 mmHg 89%
    04:00 +27°C° 0.7 mm 3 mps 746 mmHg 88%
    05:00 +27°C° 0.8 mm 3 mps 746 mmHg 88%
    06:00 +27°C° 0.8 mm 3 mps 747 mmHg 89%
    07:00 +27°C° 0.8 mm 3 mps 747 mmHg 89%
    08:00 +28°C° 0.7 mm 3 mps 747 mmHg 82%
    09:00 +30°C° 0.7 mm 3 mps 747 mmHg 75%
    10:00 +32°C° 0.7 mm 4 mps 747 mmHg 69%
    11:00 +33°C° 0.3 mm 4 mps 747 mmHg 65%
    12:00 +33°C° 0.3 mm 4 mps 746 mmHg 61%
    13:00 +34°C° 0.3 mm 5 mps 745 mmHg 58%
    14:00 +34°C° 0.1 mm 5 mps 745 mmHg 59%
    15:00 +34°C° 0.1 mm 5 mps 745 mmHg 60%
    16:00 +33°C° 0.1 mm 5 mps 744 mmHg 61%
    17:00 +32°C° 0.5 mm 4 mps 745 mmHg 68%
    18:00 +29°C° 0.5 mm 4 mps 745 mmHg 76%
    19:00 +28°C° 0.5 mm 3 mps 746 mmHg 84%
    20:00 +27°C° 1.5 mm 3 mps 746 mmHg 87%
    21:00 +26°C° 1.5 mm 3 mps 747 mmHg 90%
    22:00 +26°C° 1.5 mm 3 mps 747 mmHg 93%
    23:00 +26°C° 0.7 mm 3 mps 746 mmHg 93%
    Show more